Weather History for Ely, MN

Change the Weather History Date:

Tuesday, October 9, 2012

  Actual Average Record
Temperature  
Mean Temperature 37 °F -  
Max Temperature 44 °F 54 °F 78 °F (2003)
Min Temperature 30 °F 34 °F 21 °F (2000)
Degree Days  
Heating Degree Days 28    
Moisture  
Dew Point 34 °F    
Average Humidity 87    
Maximum Humidity 100    
Minimum Humidity 61    
Precipitation  
Precipitation 0.00 in - - ()
Sea Level Pressure  
Sea Level Pressure 29.64 in    
Wind  
Wind Speed 9 mph (West)    
Max Wind Speed 18 mph    
Max Gust Speed 25 mph    
Visibility 10 miles    
Events Rain , Snow    
Averages and records for this station are not official NWS values.
T = Trace of Precipitation, MM = Missing Value Source: NWS Daily Summary

Daily Weather History Graph

Daily Weather History Graph

Search for Another Location

Airport:

Trip Planner

Search our weather history database for the weather conditions in past years. The results will help you decide how hot, cold, wet, or windy it might be!

Date:

Astronomy

Oct. 09, 2012 Rise Set
Actual Time 7:18 AM CDT 6:29 PM CDT
Civil Twilight 6:47 AM CDT 7:00 PM CDT
Nautical Twilight 6:11 AM CDT 7:36 PM CDT
Astronomical Twilight 5:35 AM CDT 8:12 PM CDT
Moon 12:29 AM CDT (10/9) 3:20 PM CDT (10/9)
Length of Visible Light 12h 13m
Length of Day
11h 11m
Last Quarter, 36% of the Moon is Illuminated
Oct 9
Last Quarter
Oct 15
New
Oct 21
First Quarter
Oct 29
Full
Nov 6
Last Quarter

Hourly Weather History & Observations

Time (CDT) Temp. Windchill Dew Point Humidity Pressure Visibility Wind Dir Wind Speed Gust Speed Precip Events Conditions
12:12 AM 39.2 °F 33.0 °F 37.4 °F 93% 29.56 in 10.0 mi WSW 9.2 mph 17.3 mph N/A   Overcast
12:33 AM 39.2 °F 33.6 °F 37.4 °F 93% 29.56 in 10.0 mi West 8.1 mph - N/A   Overcast
12:53 AM 39.2 °F 33.6 °F 37.4 °F 93% 29.56 in 10.0 mi West 8.1 mph - N/A   Overcast
1:12 AM 39.2 °F 34.2 °F 37.4 °F 93% 29.57 in 10.0 mi West 6.9 mph - N/A   Overcast
1:33 AM 39.2 °F 34.2 °F 37.4 °F 93% 29.57 in 10.0 mi WSW 6.9 mph - N/A   Overcast
1:53 AM 39.2 °F 35.0 °F 37.4 °F 93% 29.57 in 7.0 mi WSW 5.8 mph - N/A   Drizzle
2:12 AM 39.2 °F 34.2 °F 37.4 °F 93% 29.57 in 7.0 mi WSW 6.9 mph - N/A   Overcast
2:33 AM 39.2 °F 35.0 °F 37.4 °F 93% 29.57 in 4.0 mi WSW 5.8 mph - N/A   Drizzle
3:12 AM 39.2 °F 37.0 °F 37.4 °F 93% 29.56 in 7.0 mi SSW 3.5 mph - N/A   Overcast
3:33 AM 39.2 °F 34.2 °F 39.2 °F 100% 29.56 in 10.0 mi SW 6.9 mph - N/A   Overcast
3:53 AM 39.2 °F 33.0 °F 39.2 °F 100% 29.56 in 10.0 mi SW 9.2 mph - N/A   Overcast
4:12 AM 41.0 °F 37.1 °F 39.2 °F 93% 29.57 in 10.0 mi SW 5.8 mph - N/A   Overcast
4:33 AM 39.2 °F 33.6 °F 37.4 °F 93% 29.57 in 10.0 mi WSW 8.1 mph - N/A   Overcast
4:52 AM 39.2 °F 35.0 °F 37.4 °F 93% 29.57 in 10.0 mi WSW 5.8 mph - N/A   Mostly Cloudy
5:13 AM 41.0 °F 35.8 °F 37.4 °F 87% 29.57 in 10.0 mi WSW 8.1 mph - N/A   Mostly Cloudy
5:33 AM 39.2 °F 33.0 °F 37.4 °F 93% 29.57 in 10.0 mi WSW 9.2 mph - N/A   Overcast
5:52 AM 39.2 °F 33.0 °F 37.4 °F 93% 29.58 in 10.0 mi WSW 9.2 mph - N/A   Overcast
6:13 AM 39.2 °F 34.2 °F 37.4 °F 93% 29.57 in 10.0 mi SW 6.9 mph - N/A   Overcast
6:33 AM 39.2 °F 33.6 °F 37.4 °F 93% 29.58 in 10.0 mi SW 8.1 mph - N/A   Drizzle
6:53 AM 39.2 °F 34.2 °F 37.4 °F 93% 29.58 in 7.0 mi WSW 6.9 mph - N/A Rain Rain
7:13 AM 39.2 °F 34.2 °F 37.4 °F 93% 29.58 in 10.0 mi SW 6.9 mph - N/A Rain Light Rain
7:33 AM 39.2 °F 34.2 °F 37.4 °F 93% 29.58 in 10.0 mi SW 6.9 mph - N/A   Overcast
7:53 AM 39.2 °F 34.2 °F 37.4 °F 93% 29.59 in 10.0 mi SW 6.9 mph - N/A   Overcast
8:13 AM 39.2 °F 33.6 °F 37.4 °F 93% 29.59 in 10.0 mi SW 8.1 mph - N/A   Overcast
8:33 AM 39.2 °F 33.0 °F 37.4 °F 93% 29.59 in 10.0 mi SW 9.2 mph - N/A   Overcast
8:53 AM 39.2 °F 33.6 °F 37.4 °F 93% 29.59 in 10.0 mi SW 8.1 mph - N/A   Overcast
9:13 AM 39.2 °F 33.6 °F 35.6 °F 87% 29.59 in 10.0 mi WSW 8.1 mph 18.4 mph N/A   Mostly Cloudy
9:33 AM 39.2 °F 33.0 °F 35.6 °F 87% 29.59 in 10.0 mi WSW 9.2 mph - N/A   Overcast
9:53 AM 39.2 °F 34.2 °F 35.6 °F 87% 29.59 in 10.0 mi WSW 6.9 mph - N/A   Overcast
10:13 AM 39.2 °F 32.5 °F 35.6 °F 87% 29.59 in 10.0 mi WSW 10.4 mph 17.3 mph N/A   Overcast
10:33 AM 41.0 °F 34.7 °F 35.6 °F 81% 29.59 in 10.0 mi West 10.4 mph 17.3 mph N/A   Overcast
10:53 AM 42.8 °F 36.2 °F 33.8 °F 70% 29.59 in 10.0 mi WSW 12.7 mph 19.6 mph N/A   Overcast
11:13 AM 41.0 °F 33.9 °F 33.8 °F 76% 29.59 in 10.0 mi West 12.7 mph 20.7 mph N/A   Mostly Cloudy
11:33 AM 44.6 °F 36.9 °F 33.8 °F 66% 29.59 in 10.0 mi West 18.4 mph 25.3 mph N/A   Mostly Cloudy
11:52 AM 41.0 °F 33.5 °F 32.0 °F 70% 29.60 in 10.0 mi West 13.8 mph 23.0 mph N/A   Overcast
12:13 PM 42.8 °F 34.5 °F 30.2 °F 61% 29.60 in 10.0 mi West 18.4 mph 23.0 mph N/A   Overcast
12:33 PM 39.2 °F 31.2 °F 30.2 °F 70% 29.60 in 10.0 mi West 13.8 mph 21.9 mph N/A   Overcast
12:52 PM 41.0 °F 34.7 °F 32.0 °F 70% 29.60 in 10.0 mi WSW 10.4 mph 21.9 mph N/A   Overcast
1:13 PM 42.8 °F 36.6 °F 32.0 °F 66% 29.60 in 10.0 mi WSW 11.5 mph - N/A   Overcast
1:33 PM 42.8 °F 36.2 °F 30.2 °F 61% 29.60 in 10.0 mi West 12.7 mph 17.3 mph N/A   Overcast
1:52 PM 41.0 °F 34.7 °F 30.2 °F 65% 29.60 in 10.0 mi West 10.4 mph - N/A   Overcast
2:13 PM 37.4 °F 29.8 °F 35.6 °F 93% 29.61 in 10.0 mi West 11.5 mph 18.4 mph N/A   Overcast
2:33 PM 39.2 °F 32.5 °F 35.6 °F 87% 29.61 in 7.0 mi WNW 10.4 mph 20.7 mph N/A Rain Rain
2:52 PM 39.2 °F 32.0 °F 35.6 °F 87% 29.62 in 10.0 mi WNW 11.5 mph 17.3 mph N/A   Overcast
3:04 PM 41.0 °F 34.3 °F 35.6 °F 81% 29.62 in 10.0 mi WNW 11.5 mph 21.9 mph N/A   Light Drizzle
7:01 PM 33.8 °F 28.6 °F 30.2 °F 87% 29.73 in 10.0 mi NW 5.8 mph - N/A   Overcast
7:03 PM 33.8 °F 27.0 °F 30.2 °F 87% 29.73 in 10.0 mi NW 8.1 mph - N/A   Overcast
7:13 PM 33.8 °F 24.3 °F 30.2 °F 87% 29.74 in 7.0 mi WNW 13.8 mph 18.4 mph N/A Snow Light Snow
7:32 PM 32.0 °F 23.6 °F 30.2 °F 93% 29.75 in 10.0 mi WNW 10.4 mph 16.1 mph N/A   Mostly Cloudy
7:53 PM 32.0 °F 24.2 °F 28.4 °F 87% 29.76 in 10.0 mi NW 9.2 mph 18.4 mph N/A   Mostly Cloudy
8:13 PM 32.0 °F 24.2 °F 28.4 °F 87% 29.77 in 10.0 mi NW 9.2 mph - N/A   Scattered Clouds
8:33 PM 32.0 °F 24.8 °F 28.4 °F 87% 29.78 in 10.0 mi NW 8.1 mph 16.1 mph N/A   Scattered Clouds
8:53 PM 32.0 °F 24.8 °F 28.4 °F 87% 29.78 in 10.0 mi NW 8.1 mph 16.1 mph N/A Snow Light Snow
9:12 PM 32.0 °F 23.6 °F 28.4 °F 87% 29.79 in 10.0 mi WNW 10.4 mph 19.6 mph N/A   Scattered Clouds
9:33 PM 32.0 °F 24.8 °F 28.4 °F 87% 29.79 in 10.0 mi NW 8.1 mph - N/A   Overcast
9:51 PM 30.2 °F 21.3 °F 28.4 °F 93% 29.80 in 10.0 mi NW 10.4 mph 16.1 mph N/A   Mostly Cloudy
10:13 PM 30.2 °F 20.8 °F 28.4 °F 93% 29.80 in 10.0 mi WNW 11.5 mph 17.3 mph N/A   Mostly Cloudy
10:33 PM 30.2 °F 21.3 °F 26.6 °F 86% 29.81 in 10.0 mi NW 10.4 mph 18.4 mph N/A   Mostly Cloudy
10:53 PM 30.2 °F 22.6 °F 26.6 °F 86% 29.82 in 10.0 mi NW 8.1 mph 18.4 mph N/A   Overcast
11:12 PM 30.2 °F 25.4 °F 26.6 °F 86% 29.82 in 10.0 mi WNW 4.6 mph - N/A   Mostly Cloudy
11:33 PM 30.2 °F 24.3 °F 26.6 °F 86% 29.82 in 10.0 mi West 5.8 mph - N/A   Scattered Clouds
11:53 PM 30.2 °F 25.4 °F 26.6 °F 86% 29.82 in 10.0 mi WNW 4.6 mph - N/A   Scattered Clouds